period_start,C,m1,H,J0,J1,J2,J3,J4,J5,JA,JB,JC,JD,JJ,JK,JN,#
2017-01-16 00:03:56,0.03,0.02,0.00,23.06,27.27,30.57,14.90,48.08,1042.02,2029.13,3597.12,3128.03,3550.75,600.37,611.13,0.61,0000 0000 0000 0000 000000
2017-01-16 00:08:57,0.03,0.02,0.00,23.21,27.27,30.68,14.88,47.89,1042.01,2029.07,3596.24,3127.70,3550.02,599.85,610.35,0.66,0000 0000 0000 0000 000000
2017-01-16 00:13:59,0.04,0.02,0.00,23.32,27.27,30.65,14.87,47.92,1042.01,2029.09,3595.45,3127.03,3549.24,599.94,610.25,0.72,0000 0000 0000 0000 000000
2017-01-16 00:18:59,0.03,0.03,0.00,23.33,27.27,30.63,14.92,48.01,1042.02,2029.08,3594.63,3126.59,3548.64,600.60,610.79,0.77,0000 0000 0000 0000 000000
2017-01-16 00:24:01,0.03,0.03,0.00,23.31,27.27,30.61,14.87,47.96,1042.02,2029.07,3593.72,3126.00,3548.00,600.25,610.52,0.82,0000 0000 0000 0000 000000
2017-01-16 00:29:02,0.04,0.03,0.00,23.21,27.29,30.81,14.92,47.88,1042.03,2029.04,3592.71,3125.38,3547.19,599.88,610.27,0.87,0000 0000 0000 0000 000000
2017-01-16 00:34:03,0.02,0.03,0.00,23.17,27.30,30.79,14.94,47.84,1042.18,2029.02,3591.88,3124.98,3546.53,599.95,610.65,0.92,0000 0000 0000 0000 000000
2017-01-16 00:39:04,0.04,0.03,0.00,23.22,27.30,30.76,14.82,47.78,1042.19,2029.05,3591.05,3124.40,3545.94,600.10,610.77,0.97,0000 0000 0000 0000 000000
2017-01-16 00:44:05,0.03,0.04,0.00,23.31,27.30,30.73,14.92,47.80,1042.02,2029.03,3590.19,3123.98,3545.14,600.30,610.51,1.02,0000 0000 0000 0000 000000
2017-01-16 00:49:06,0.04,0.04,0.00,23.26,27.30,30.79,14.90,48.13,1042.02,2029.01,3589.29,3123.30,3544.49,599.76,610.26,1.07,0000 0000 0000 0000 000000
2017-01-16 00:54:08,0.02,0.04,0.00,23.29,27.30,30.78,14.89,47.83,1042.01,2029.00,3588.34,3122.90,3543.86,600.42,610.70,1.12,0000 0000 0000 0000 000000
2017-01-16 00:59:09,0.04,0.04,0.00,23.23,27.31,30.80,14.91,47.95,1042.02,2029.00,3587.51,3122.13,3543.07,599.80,610.24,1.17,0000 0000 0000 0000 000000
2017-01-16 01:04:10,0.01,0.04,0.00,23.17,27.30,30.79,14.98,48.00,1042.02,2029.00,3586.85,3121.97,3542.58,600.31,610.90,1.22,0000 0000 0000 0000 000000
2017-01-16 01:09:12,0.04,0.04,0.00,23.13,27.30,30.61,14.87,47.78,1042.01,2029.00,3585.95,3121.31,3542.00,599.79,610.42,1.27,0000 0000 0000 0000 000000
2017-01-16 01:14:13,0.02,0.05,0.00,23.17,27.30,30.70,14.86,47.92,1042.01,2029.00,3585.09,3120.99,3541.37,600.08,610.62,1.32,0000 0000 0000 0000 000000
2017-01-16 01:19:14,0.04,0.05,0.00,23.26,27.30,30.71,14.85,47.86,1042.02,2029.00,3584.47,3120.45,3540.88,600.18,610.52,1.37,0000 0000 0000 0000 000000
2017-01-16 01:24:16,0.02,0.05,0.00,23.25,27.30,30.72,14.80,47.70,1042.01,2029.00,3583.80,3120.00,3540.12,600.05,610.39,1.42,0000 0000 0000 0000 000000
2017-01-16 01:29:17,0.03,0.05,0.00,23.28,27.30,30.76,14.84,47.94,1042.01,2029.01,3583.03,3119.63,3539.74,599.89,610.25,1.47,0000 0000 0000 0000 000000
2017-01-16 01:34:19,0.02,0.05,0.00,23.32,27.30,30.72,14.83,47.99,1042.01,2029.00,3582.37,3119.01,3539.02,599.79,610.02,1.52,0000 0000 0000 0000 000000
2017-01-16 01:39:20,0.04,0.05,0.00,23.28,27.30,30.77,14.89,48.02,1041.97,2029.00,3581.58,3118.63,3538.40,599.96,610.31,1.57,0000 0000 0000 0000 000000
2017-01-16 01:44:21,0.02,0.05,0.00,23.19,27.30,30.80,14.91,48.10,1041.93,2029.01,3580.77,3118.02,3537.98,599.81,610.24,1.62,0000 0000 0000 0000 000000
2017-01-16 01:49:23,0.03,0.06,0.00,23.13,27.30,30.78,14.82,47.87,1041.73,2029.01,3579.99,3117.80,3537.22,599.74,610.21,1.67,0000 0000 0000 0000 000000
2017-01-16 01:54:24,0.04,0.06,0.00,23.11,27.30,30.65,14.89,47.87,1041.70,2029.00,3579.11,3117.05,3536.64,600.12,610.63,1.72,0000 0000 0000 0000 000000
2017-01-16 01:59:25,0.02,0.06,0.00,23.10,27.29,30.64,14.85,47.85,1041.84,2029.00,3578.29,3116.92,3536.02,599.99,610.79,1.77,0000 0000 0000 0000 000000
2017-01-16 02:04:27,0.04,0.06,0.00,23.09,27.27,30.54,14.86,47.79,1041.70,2029.00,3577.73,3116.20,3535.57,599.87,610.58,1.82,0000 0000 0000 0000 000000
2017-01-16 02:09:28,0.01,0.06,0.00,23.21,27.27,30.70,14.90,47.81,1041.60,2029.01,3576.92,3115.96,3534.98,599.94,610.13,1.87,0000 0000 0000 0000 000000
2017-01-16 02:14:30,0.04,0.06,0.00,23.27,27.27,30.67,14.90,47.89,1041.54,2029.00,3576.08,3115.26,3534.20,599.86,609.97,1.92,0000 0000 0000 0000 000000
2017-01-16 02:19:31,0.02,0.07,0.00,23.28,27.27,30.71,14.89,47.83,1041.52,2029.00,3575.43,3114.96,3533.80,600.23,610.46,1.97,0000 0000 0000 0000 000000
2017-01-16 02:24:32,0.41,0.08,0.00,23.21,27.27,30.78,14.75,47.72,1041.52,2029.00,3569.37,3111.96,3530.36,599.38,609.53,2.02,0000 0000 0000 0000 000000
2017-01-16 02:29:34,0.15,0.09,0.00,23.27,27.27,30.77,14.86,47.92,1041.52,2029.00,3560.19,3107.28,3525.27,599.79,609.85,2.07,0000 0000 0000 0000 000000
2017-01-16 02:34:35,0.01,0.10,0.00,23.23,27.28,30.79,14.92,48.07,1041.52,2029.00,3559.24,3106.99,3524.96,600.10,610.29,2.12,0000 0000 0000 0000 000000
2017-01-16 02:39:36,0.04,0.10,0.00,23.18,27.29,30.80,14.86,47.89,1041.52,2029.00,3558.60,3106.45,3524.22,600.12,610.31,2.17,0000 0000 0000 0000 000000
2017-01-16 02:44:37,0.01,0.10,0.00,23.22,27.29,30.76,14.88,47.63,1041.51,2029.01,3558.01,3106.01,3523.68,600.20,610.38,2.22,0000 0000 0000 0000 000000
2017-01-16 02:49:39,0.02,0.10,0.00,23.30,27.30,30.74,14.86,47.85,1041.48,2029.00,3557.37,3105.89,3523.03,600.08,610.05,2.27,0000 0000 0000 0000 000000
2017-01-16 02:54:40,0.03,0.10,0.00,23.30,27.30,30.76,14.90,47.95,1041.26,2029.01,3556.60,3105.12,3522.79,600.41,610.26,2.32,0000 0000 0000 0000 000000
2017-01-16 02:59:42,0.02,0.10,0.00,23.31,27.30,30.81,14.83,47.99,1041.08,2029.00,3555.90,3104.89,3522.04,600.23,609.92,2.37,0000 0000 0000 0000 000000
2017-01-16 03:04:43,0.04,0.10,0.00,23.30,27.30,30.81,14.88,47.98,1041.05,2029.00,3555.05,3104.10,3521.46,600.16,609.90,2.42,0000 0000 0000 0000 000000
2017-01-16 03:09:45,0.01,0.11,0.00,23.21,27.30,30.82,14.84,47.99,1041.04,2029.00,3554.25,3103.96,3520.98,599.85,609.75,2.47,0000 0000 0000 0000 000000
2017-01-16 03:14:46,0.04,0.11,0.00,23.17,27.30,30.76,14.88,47.73,1041.03,2029.00,3553.80,3103.22,3520.16,600.04,610.13,2.52,0000 0000 0000 0000 000000
2017-01-16 03:19:47,0.01,0.11,0.00,23.16,27.30,30.73,14.87,47.83,1041.03,2029.00,3553.04,3102.99,3519.99,599.98,610.06,2.57,0000 0000 0000 0000 000000
2017-01-16 03:24:48,0.03,0.11,0.00,23.14,27.30,30.73,14.87,47.97,1041.03,2029.00,3552.40,3102.77,3519.59,599.91,610.03,2.62,0000 0000 0000 0000 000000
2017-01-16 03:29:50,0.02,0.11,0.00,23.27,27.30,30.75,14.78,47.76,1040.99,2029.00,3551.79,3102.06,3519.02,599.99,609.76,2.67,0000 0000 0000 0000 000000
2017-01-16 03:34:51,0.01,0.11,0.00,23.32,27.30,30.72,14.85,47.76,1041.00,2029.00,3551.02,3101.95,3518.71,600.38,610.11,2.72,0000 0000 0000 0000 000000
2017-01-16 03:39:52,0.04,0.11,0.00,23.34,27.30,30.71,14.85,47.80,1041.03,2029.00,3550.26,3101.20,3518.01,599.73,609.37,2.77,0000 0000 0000 0000 000000
2017-01-16 03:44:54,0.01,0.12,0.00,23.36,27.30,30.74,14.86,47.92,1041.00,2029.00,3549.75,3101.00,3517.52,600.13,609.73,2.82,0000 0000 0000 0000 000000
2017-01-16 03:49:55,0.03,0.12,0.00,23.30,27.31,30.81,14.85,47.83,1040.91,2029.00,3549.00,3100.53,3517.01,600.31,609.91,2.87,0000 0000 0000 0000 000000
2017-01-16 03:54:57,0.03,0.12,0.00,23.29,27.32,30.81,14.80,47.72,1040.86,2029.00,3548.22,3100.02,3516.48,599.77,609.45,2.92,0000 0000 0000 0000 000000
2017-01-16 03:59:58,0.02,0.12,0.00,23.32,27.32,30.80,14.93,47.98,1040.67,2029.00,3547.60,3099.86,3516.00,600.50,609.98,2.97,0000 0000 0000 0000 000000
2017-01-16 04:04:59,0.03,0.12,0.00,23.32,27.32,30.82,14.81,47.95,1040.57,2029.00,3547.01,3099.20,3515.53,600.01,609.44,3.03,0000 0000 0000 0000 000000
2017-01-16 04:10:00,0.02,0.12,0.00,23.30,27.32,30.82,14.89,48.08,1040.55,2029.00,3546.21,3098.99,3515.00,600.19,609.64,3.08,0000 0000 0000 0000 000000
2017-01-16 04:15:01,0.04,0.12,0.00,23.29,27.32,30.79,14.85,47.91,1040.55,2029.00,3545.62,3098.39,3514.27,600.14,609.77,3.13,0000 0000 0000 0000 000000
2017-01-16 04:20:03,0.01,0.13,0.00,23.33,27.32,30.80,14.84,47.99,1040.53,2029.00,3545.01,3098.01,3513.97,600.06,609.44,3.18,0000 0000 0000 0000 000000
2017-01-16 04:25:04,0.02,0.13,0.00,23.28,27.33,30.78,14.77,47.98,1040.24,2029.00,3544.29,3097.92,3513.31,599.70,609.15,3.23,0000 0000 0000 0000 000000
2017-01-16 04:30:06,0.02,0.13,0.00,23.30,27.33,30.78,14.84,48.06,1040.06,2029.00,3543.93,3097.21,3513.00,600.23,609.30,3.28,0000 0000 0000 0000 000000
2017-01-16 04:35:07,0.02,0.13,0.00,23.35,27.33,30.76,14.82,48.38,1040.06,2029.00,3543.12,3096.99,3512.61,600.07,609.09,3.33,0000 0000 0000 0000 000000
2017-01-16 04:40:08,0.02,0.13,0.00,23.29,27.33,30.79,14.88,48.04,1040.05,2029.00,3542.44,3096.72,3512.01,600.24,609.42,3.38,0000 0000 0000 0000 000000
2017-01-16 04:45:10,0.02,0.13,0.00,23.25,27.33,30.78,14.81,48.07,1040.06,2029.00,3541.95,3096.05,3511.56,599.35,608.62,3.43,0000 0000 0000 0000 000000
2017-01-16 04:50:11,0.01,0.13,0.00,23.22,27.32,30.79,14.83,47.83,1040.06,2029.00,3541.22,3095.99,3511.00,600.00,609.27,3.48,0000 0000 0000 0000 000000
2017-01-16 04:55:13,0.03,0.13,0.00,23.30,27.32,30.76,14.80,47.91,1040.06,2028.99,3540.88,3095.55,3510.40,599.65,608.81,3.53,0000 0000 0000 0000 000000
2017-01-16 05:00:14,0.02,0.14,0.00,23.30,27.32,30.73,14.80,47.88,1040.06,2028.98,3540.08,3095.02,3510.01,599.93,609.23,3.58,0000 0000 0000 0000 000000
2017-01-16 05:05:15,0.01,0.14,0.00,23.21,27.32,30.57,14.88,47.83,1040.04,2028.99,3539.71,3094.98,3509.65,600.24,609.60,3.63,0000 0000 0000 0000 000000
2017-01-16 05:10:17,0.03,0.14,0.00,23.13,27.32,30.46,14.90,47.81,1039.99,2028.99,3539.03,3094.49,3509.06,599.93,609.41,3.68,0000 0000 0000 0000 000000
2017-01-16 05:15:17,0.01,0.14,0.00,22.75,27.32,30.42,14.75,47.91,1039.84,2028.99,3538.39,3094.02,3508.93,599.32,609.46,3.73,0000 0000 0000 0000 000000
2017-01-16 05:20:19,0.02,0.14,0.00,22.54,27.30,30.48,14.85,47.98,1039.80,2028.99,3537.86,3093.96,3508.14,599.86,610.38,3.78,0000 0000 0000 0000 000000
2017-01-16 05:25:20,0.03,0.14,0.00,22.45,27.29,30.59,14.84,47.90,1040.01,2028.99,3537.06,3093.47,3508.00,599.71,610.65,3.83,0000 0000 0000 0000 000000
2017-01-16 05:30:22,0.01,0.14,0.00,22.33,27.27,30.75,14.86,48.01,1040.05,2028.99,3536.64,3093.03,3507.91,599.57,610.77,3.88,0000 0000 0000 0000 000000
2017-01-16 05:35:23,0.01,0.14,0.00,22.29,27.24,30.64,14.96,48.36,1040.05,2029.00,3536.02,3093.00,3507.43,599.94,611.23,3.93,0000 0000 0000 0000 000000
2017-01-16 05:40:24,0.00,0.14,0.00,22.25,27.21,30.66,14.94,48.19,1040.04,2029.01,3535.94,3093.00,3507.04,600.06,611.32,3.98,0000 0000 0000 0000 000000
2017-01-16 05:45:25,0.02,0.15,0.00,22.26,27.17,30.58,14.93,48.14,1040.04,2029.10,3535.30,3092.99,3507.00,600.11,611.34,4.03,0000 0000 0000 0000 000000
2017-01-16 05:50:26,0.05,0.15,0.00,22.31,27.12,30.49,14.95,48.18,1039.85,2029.50,3535.01,3092.98,3506.99,599.87,611.00,4.08,0000 0000 0000 0000 000000
2017-01-16 05:55:28,0.02,0.15,0.00,22.31,27.08,30.42,14.90,48.00,1039.59,2029.93,3535.00,3092.97,3506.99,600.16,611.09,4.13,0000 0000 0000 0000 000000
2017-01-16 06:00:29,0.01,0.15,0.00,22.38,27.04,30.34,14.93,48.15,1039.59,2029.99,3534.71,3092.95,3506.95,600.11,611.00,4.18,0000 0000 0000 0000 000000
2017-01-16 06:05:30,0.00,0.15,0.00,22.43,27.00,30.26,14.94,48.11,1039.60,2029.99,3534.18,3092.94,3506.86,600.05,610.81,4.23,0000 0000 0000 0000 000000
2017-01-16 06:10:31,0.01,0.15,0.00,22.45,26.96,30.13,14.93,48.08,1039.65,2030.02,3534.01,3092.85,3506.58,599.91,610.64,4.28,0000 0000 0000 0000 000000
2017-01-16 06:15:33,0.02,0.15,0.00,22.47,26.93,30.05,14.94,48.05,1039.62,2030.02,3533.99,3092.35,3506.05,600.21,610.76,4.33,0000 0000 0000 0000 000000
2017-01-16 06:20:35,0.01,0.15,0.00,22.53,26.91,30.01,14.85,47.98,1039.59,2030.05,3533.76,3092.04,3505.99,599.81,610.32,4.38,0000 0000 0000 0000 000000
2017-01-16 06:25:36,0.01,0.15,0.00,22.54,26.89,30.04,14.89,47.95,1039.58,2030.09,3533.09,3092.00,3505.87,600.03,610.42,4.43,0000 0000 0000 0000 000000
2017-01-16 06:30:37,0.07,0.16,0.00,22.56,26.87,29.94,14.83,47.91,1039.57,2030.60,3532.95,3091.99,3505.37,599.90,610.27,4.48,0000 0000 0000 0000 000000
2017-01-16 06:35:38,0.03,0.16,0.00,22.60,26.85,30.06,14.96,48.02,1039.58,2030.87,3532.37,3091.98,3505.03,600.17,610.56,4.53,0000 0000 0000 0000 000000
2017-01-16 06:40:40,0.02,0.16,0.00,22.61,26.85,30.13,14.95,47.98,1039.60,2030.92,3532.02,3091.55,3505.00,600.24,610.49,4.58,0000 0000 0000 0000 000000
2017-01-16 06:45:41,0.02,0.16,0.00,22.64,26.85,30.19,14.87,47.92,1039.59,2030.94,3531.67,3091.04,3504.66,599.97,610.14,4.63,0000 0000 0000 0000 000000
2017-01-16 06:50:42,0.01,0.16,0.00,22.67,26.85,30.22,14.96,48.04,1039.58,2030.97,3531.05,3091.00,3504.05,600.12,610.25,4.68,0000 0000 0000 0000 000000
2017-01-16 06:55:43,0.01,0.16,0.00,22.70,26.85,30.28,14.90,47.98,1039.58,2030.97,3530.66,3090.92,3503.98,599.98,610.14,4.73,0000 0000 0000 0000 000000
2017-01-16 07:00:44,0.03,0.16,0.00,22.74,26.85,30.28,14.87,48.03,1039.57,2030.97,3530.03,3090.36,3503.54,599.99,609.90,4.78,0000 0000 0000 0000 000000
2017-01-16 07:05:46,0.01,0.17,0.00,22.76,26.85,30.30,14.86,48.04,1039.58,2030.98,3529.72,3090.02,3503.02,599.78,609.96,4.83,0000 0000 0000 0000 000000
2017-01-16 07:10:47,0.01,0.17,0.00,22.78,26.85,30.33,14.92,48.00,1039.57,2030.96,3529.03,3089.96,3502.78,600.03,610.05,4.88,0000 0000 0000 0000 000000
2017-01-16 07:15:48,0.04,0.17,0.00,22.80,26.86,30.34,14.83,47.89,1039.57,2030.93,3528.60,3089.27,3502.02,599.79,609.63,4.93,0000 0000 0000 0000 000000
2017-01-16 07:20:49,0.01,0.17,0.00,22.82,26.87,30.37,14.98,47.93,1039.57,2030.88,3528.00,3089.00,3501.71,600.33,610.06,4.98,0000 0000 0000 0000 000000
2017-01-16 07:25:50,0.01,0.17,0.00,22.83,26.88,30.37,14.83,47.97,1039.56,2030.80,3527.44,3088.86,3501.06,599.91,609.78,5.03,0000 0000 0000 0000 000000
2017-01-16 07:30:52,0.02,0.17,0.00,22.85,26.90,30.44,14.87,47.95,1039.55,2030.68,3526.89,3088.13,3500.85,600.10,609.87,5.08,0000 0000 0000 0000 000000
2017-01-16 07:35:53,0.00,0.17,0.00,22.88,26.91,30.42,14.81,47.91,1039.55,2030.44,3526.08,3088.00,3500.05,599.74,609.51,5.13,0000 0000 0000 0000 000000
2017-01-16 07:40:54,-0.00,0.17,0.00,22.91,26.93,30.44,14.92,47.86,1039.54,2030.13,3525.81,3087.51,3499.62,600.12,609.86,5.18,0000 0000 0000 0000 000000
2017-01-16 07:45:56,0.02,0.17,0.00,22.92,26.95,30.50,14.76,47.97,1039.52,2030.05,3525.03,3087.03,3499.04,600.20,609.84,5.23,0000 0000 0000 0000 000000
2017-01-16 07:50:57,0.01,0.17,0.00,22.94,26.96,30.51,14.87,47.83,1039.55,2030.05,3524.48,3086.97,3498.97,599.96,609.61,5.29,0000 0000 0000 0000 000000
2017-01-16 07:55:59,0.03,0.17,0.00,22.96,26.97,30.53,14.84,47.81,1039.57,2030.03,3523.96,3086.47,3498.18,600.03,609.59,5.34,0000 0000 0000 0000 000000
2017-01-16 08:01:00,0.02,0.18,0.00,22.97,27.00,30.57,14.91,47.90,1039.56,2030.01,3523.14,3086.02,3497.94,600.31,609.89,5.39,0000 0000 0000 0000 000000
2017-01-16 08:06:02,0.03,0.18,0.00,23.09,27.02,30.56,14.81,47.96,1039.50,2030.00,3522.52,3085.63,3497.14,600.20,609.42,5.44,0000 0000 0000 0000 000000
2017-01-16 08:11:03,0.01,0.18,0.00,23.20,27.04,30.49,14.85,47.96,1039.37,2030.00,3522.00,3085.03,3496.80,599.89,608.87,5.49,0000 0000 0000 0000 000000
2017-01-16 08:16:04,0.03,0.18,0.00,23.23,27.06,30.44,14.84,47.88,1039.53,2030.00,3521.36,3084.76,3496.06,599.86,608.90,5.54,0000 0000 0000 0000 000000
2017-01-16 08:21:06,0.03,0.18,0.00,23.25,27.09,30.45,14.85,47.76,1039.53,2029.99,3520.64,3084.08,3495.57,600.02,609.01,5.59,0000 0000 0000 0000 000000
2017-01-16 08:26:07,0.01,0.18,0.00,23.23,27.11,30.50,14.81,47.92,1039.35,2029.98,3520.00,3083.95,3495.00,599.96,608.88,5.64,0000 0000 0000 0000 000000
2017-01-16 08:31:08,0.05,0.18,0.00,23.18,27.13,30.67,14.87,47.88,1039.16,2029.96,3519.24,3083.15,3494.26,600.04,608.93,5.69,0000 0000 0000 0000 000000
2017-01-16 08:36:10,-0.00,0.18,0.00,23.18,27.15,30.77,14.87,47.94,1039.12,2029.86,3518.94,3082.97,3493.84,599.76,608.68,5.74,0000 0000 0000 0000 000000
2017-01-16 08:41:11,-0.00,0.19,0.00,23.20,27.17,30.78,14.78,47.89,1039.10,2029.43,3518.19,3082.29,3493.05,599.96,608.87,5.79,0000 0000 0000 0000 000000
2017-01-16 08:46:12,0.01,0.18,0.00,23.23,27.19,30.79,14.81,47.78,1039.10,2029.17,3517.38,3081.99,3492.72,599.88,608.65,5.84,0000 0000 0000 0000 000000
2017-01-16 08:51:13,0.04,0.19,0.00,23.29,27.20,30.74,14.88,47.85,1039.08,2029.11,3516.49,3081.29,3491.86,600.19,608.80,5.89,0000 0000 0000 0000 000000
2017-01-16 08:56:14,0.02,0.19,0.00,23.26,27.22,30.78,14.84,47.71,1039.09,2029.03,3515.76,3080.91,3491.05,600.01,608.72,5.94,0000 0000 0000 0000 000000
2017-01-16 09:01:16,0.03,0.19,0.00,23.22,27.22,30.81,14.80,47.83,1039.09,2029.01,3514.98,3080.15,3490.55,599.73,608.48,5.99,0000 0000 0000 0000 000000
2017-01-16 09:06:17,0.01,0.19,0.00,23.23,27.24,30.76,14.86,47.91,1039.08,2029.00,3514.18,3079.97,3489.92,599.97,608.71,6.04,0000 0000 0000 0000 000000
2017-01-16 09:11:18,0.04,0.19,0.00,23.26,27.25,30.78,14.79,47.85,1039.08,2029.00,3513.81,3079.29,3489.12,599.82,608.55,6.09,0000 0000 0000 0000 000000
2017-01-16 09:16:19,0.01,0.19,0.00,23.28,27.25,30.79,14.84,47.81,1039.08,2029.00,3513.03,3079.01,3489.00,600.15,608.72,6.14,0000 0000 0000 0000 000000
2017-01-16 09:21:20,0.02,0.20,0.00,23.28,27.26,30.80,14.85,47.80,1039.09,2029.00,3512.27,3078.88,3488.75,600.14,608.71,6.19,0000 0000 0000 0000 000000
2017-01-16 09:26:21,0.04,0.20,0.00,23.31,27.27,30.80,14.84,47.88,1039.08,2029.00,3511.62,3078.20,3488.10,599.85,608.55,6.24,0000 0000 0000 0000 000000
2017-01-16 09:31:23,0.01,0.20,0.00,23.32,27.27,30.81,14.88,47.89,1039.09,2029.00,3511.01,3077.98,3487.92,599.92,608.44,6.29,0000 0000 0000 0000 000000
2017-01-16 09:36:24,0.03,0.20,0.00,23.27,27.27,30.82,14.78,48.08,1039.08,2029.00,3510.29,3077.78,3487.28,599.96,608.71,6.34,0000 0000 0000 0000 000000
2017-01-16 09:41:25,0.02,0.20,0.00,23.26,27.29,30.83,14.84,47.97,1039.08,2029.00,3509.99,3077.11,3486.98,600.27,608.77,6.39,0000 0000 0000 0000 000000
2017-01-16 09:46:26,0.02,0.20,0.00,23.25,27.30,30.83,14.83,48.03,1039.08,2029.00,3509.19,3077.00,3486.24,600.18,608.82,6.44,0000 0000 0000 0000 000000
2017-01-16 09:51:28,0.01,0.20,0.00,23.21,27.30,30.84,14.80,47.88,1039.08,2029.00,3508.98,3076.82,3486.00,599.92,608.68,6.49,0000 0000 0000 0000 000000
2017-01-16 09:56:29,0.03,0.20,0.00,23.29,27.30,30.79,14.81,47.77,1039.08,2028.99,3508.26,3076.13,3485.59,600.06,608.76,6.54,0000 0000 0000 0000 000000
2017-01-16 10:01:30,0.01,0.21,0.00,23.25,27.30,30.80,14.78,47.80,1039.08,2028.98,3507.83,3075.98,3485.01,599.78,608.44,6.59,0000 0000 0000 0000 000000
2017-01-16 10:06:32,0.03,0.21,0.00,23.24,27.32,30.82,14.87,47.85,1039.08,2028.98,3507.06,3075.60,3484.77,600.15,608.70,6.64,0000 0000 0000 0000 000000
2017-01-16 10:11:33,0.02,0.21,0.00,23.32,27.32,30.81,14.84,48.01,1039.08,2028.98,3506.66,3075.05,3484.07,600.20,608.54,6.69,0000 0000 0000 0000 000000
2017-01-16 10:16:34,0.00,0.21,0.00,23.30,27.32,30.80,14.87,47.80,1039.08,2028.99,3506.05,3074.98,3483.94,600.16,608.71,6.74,0000 0000 0000 0000 000000
2017-01-16 10:21:35,0.03,0.21,0.00,23.22,27.32,30.82,14.78,47.86,1039.08,2028.94,3505.61,3074.53,3483.16,599.73,608.43,6.79,0000 0000 0000 0000 000000
2017-01-16 10:26:37,0.01,0.21,0.00,23.25,27.33,30.83,14.79,47.79,1039.08,2028.93,3505.01,3074.02,3482.97,599.96,608.61,6.84,0000 0000 0000 0000 000000
2017-01-16 10:31:38,0.01,0.21,0.00,23.28,27.34,30.83,14.83,47.97,1039.08,2028.82,3504.26,3073.99,3482.41,599.72,608.39,6.89,0000 0000 0000 0000 000000
2017-01-16 10:36:40,0.02,0.21,0.00,23.28,27.35,30.84,14.85,48.02,1039.05,2028.80,3503.87,3073.41,3482.01,600.20,608.85,6.94,0000 0000 0000 0000 000000
2017-01-16 10:41:41,0.01,0.21,0.00,23.25,27.35,30.84,14.85,48.15,1038.84,2028.77,3503.10,3073.01,3481.85,599.93,608.57,6.99,0000 0000 0000 0000 000000
2017-01-16 10:46:43,0.03,0.21,0.00,23.22,27.35,30.82,14.77,47.98,1038.68,2028.79,3502.63,3072.98,3481.16,599.66,608.24,7.04,0000 0000 0000 0000 000000
2017-01-16 10:51:44,0.02,0.22,0.00,23.23,27.35,30.82,14.89,48.04,1038.66,2028.76,3502.02,3072.56,3480.99,600.27,608.77,7.09,0000 0000 0000 0000 000000
2017-01-16 10:56:45,0.02,0.22,0.00,23.26,27.35,30.83,14.84,47.91,1038.68,2028.66,3501.69,3072.02,3480.34,599.88,608.38,7.14,0000 0000 0000 0000 000000
2017-01-16 11:01:46,-0.01,0.22,0.00,23.25,27.35,30.85,14.83,48.01,1038.66,2028.39,3501.02,3071.97,3479.99,599.66,608.05,7.19,0000 0000 0000 0000 000000
2017-01-16 11:06:48,0.03,0.22,0.00,23.28,27.36,30.78,14.83,48.00,1038.64,2028.30,3500.57,3071.39,3479.42,600.24,608.62,7.24,0000 0000 0000 0000 000000
2017-01-16 11:11:49,-0.01,0.22,0.00,23.27,27.37,30.85,14.82,47.99,1038.62,2028.12,3500.02,3071.00,3479.00,600.13,608.48,7.29,0000 0000 0000 0000 000000
2017-01-16 11:16:50,0.02,0.22,0.00,23.23,27.37,30.84,14.87,47.85,1038.60,2028.19,3499.87,3071.00,3478.78,600.19,608.68,7.34,0000 0000 0000 0000 000000
2017-01-16 11:21:52,0.01,0.22,0.00,23.22,27.37,30.83,14.82,47.75,1038.59,2028.08,3499.11,3070.97,3478.09,600.00,608.50,7.39,0000 0000 0000 0000 000000
2017-01-16 11:26:53,0.03,0.22,0.00,23.23,27.37,30.85,14.87,48.02,1038.59,2028.11,3498.87,3070.43,3478.00,600.06,608.55,7.44,0000 0000 0000 0000 000000
2017-01-16 11:31:55,0.01,0.22,0.00,23.24,27.37,30.85,14.81,47.99,1038.59,2028.11,3498.09,3070.03,3477.95,599.67,608.13,7.49,0000 0000 0000 0000 000000
2017-01-16 11:36:56,0.00,0.22,0.00,23.17,27.37,30.85,14.82,47.84,1038.59,2028.09,3497.97,3070.00,3477.27,600.02,608.54,7.54,0000 0000 0000 0000 000000
2017-01-16 11:41:57,0.02,0.22,0.00,23.18,27.37,30.87,14.83,47.87,1038.59,2028.10,3497.34,3069.99,3477.01,599.71,608.16,7.59,0000 0000 0000 0000 000000
2017-01-16 11:46:58,0.02,0.22,0.00,23.26,27.37,30.82,14.88,47.89,1038.51,2028.05,3497.01,3069.41,3476.96,600.67,609.02,7.65,0000 0000 0000 0000 000000
2017-01-16 11:51:59,0.01,0.22,0.00,23.26,27.37,30.83,14.83,47.85,1038.15,2028.03,3496.90,3069.05,3476.23,599.98,608.15,7.70,0000 0000 0000 0000 000000
2017-01-16 11:57:00,0.02,0.23,0.00,23.26,27.37,30.83,14.80,47.96,1038.10,2028.07,3496.25,3069.00,3476.01,600.26,608.31,7.75,0000 0000 0000 0000 000000
2017-01-16 12:02:01,0.00,0.23,0.00,23.21,27.37,30.86,14.85,47.92,1038.10,2028.08,3495.97,3068.98,3475.99,600.19,608.33,7.80,0000 0000 0000 0000 000000
2017-01-16 12:07:03,0.02,0.23,0.00,23.16,27.37,30.87,14.79,47.86,1038.10,2028.07,3495.28,3068.75,3475.79,599.90,608.21,7.85,0000 0000 0000 0000 000000
2017-01-16 12:12:04,0.02,0.23,0.00,23.12,27.37,30.84,14.79,47.79,1038.10,2028.05,3495.00,3068.11,3475.09,599.83,608.19,7.90,0000 0000 0000 0000 000000
2017-01-16 12:17:05,0.00,0.23,0.00,23.22,27.37,30.85,14.81,47.70,1038.10,2028.05,3494.80,3068.00,3474.99,600.26,608.39,7.95,0000 0000 0000 0000 000000
2017-01-16 12:22:06,0.02,0.23,0.00,23.23,27.37,30.85,14.86,47.86,1038.10,2028.04,3494.09,3068.00,3474.54,600.29,608.43,8.00,0000 0000 0000 0000 000000
2017-01-16 12:27:07,0.00,0.23,0.00,23.19,27.37,30.83,14.86,47.78,1038.10,2028.03,3493.96,3067.91,3474.02,600.01,608.28,8.05,0000 0000 0000 0000 000000
2017-01-16 12:32:08,0.02,0.23,0.00,23.19,27.36,30.82,14.81,47.94,1038.10,2028.04,3493.45,3067.49,3474.00,599.80,608.05,8.10,0000 0000 0000 0000 000000
2017-01-16 12:37:09,0.01,0.23,0.00,23.18,27.35,30.84,14.88,47.91,1038.10,2028.03,3493.01,3067.05,3473.91,600.23,608.65,8.15,0000 0000 0000 0000 000000
2017-01-16 12:42:11,0.01,0.23,0.00,23.15,27.35,30.84,14.84,48.08,1038.10,2028.02,3492.84,3067.00,3473.33,599.83,608.16,8.20,0000 0000 0000 0000 000000
2017-01-16 12:47:12,0.01,0.23,0.00,23.18,27.35,30.84,14.80,47.96,1038.10,2028.03,3492.31,3066.99,3473.01,599.76,608.13,8.25,0000 0000 0000 0000 000000
2017-01-16 12:52:13,0.01,0.23,0.00,23.19,27.35,30.83,14.90,48.03,1038.09,2028.04,3492.00,3066.90,3473.00,600.05,608.24,8.30,0000 0000 0000 0000 000000
2017-01-16 12:57:14,0.03,0.24,0.00,23.13,27.35,30.84,14.82,47.92,1038.00,2028.04,3491.71,3066.20,3472.74,600.12,608.38,8.35,0000 0000 0000 0000 000000
2017-01-16 13:02:16,0.02,0.24,0.00,23.11,27.35,30.83,14.81,47.86,1037.81,2028.08,3491.14,3066.01,3472.13,599.60,608.04,8.40,0000 0000 0000 0000 000000